Location: Gajan
(43.0218°N, 1.1244°E)
Time: 14:31:32
(UTC+00:00)

Daily predictions for brighter satellites

Satellite Brightness Start Highest point End
(mag) Time Altitude Azimuth Time Altitude Azimuth Time Altitude Azimuth
BREEZE-M DEB (TANK) 3.5 19:10:53 10° W 19:14:04 63° NNW 19:23:46 10° ENE
Cosmos 2333 Rocket 2.4 19:11:13 10° NNW 19:17:00 79° WSW 19:22:42 10° SSE
SJ-6B 3.3 19:14:16 10° SE 19:17:43 37° ENE 19:21:13 10° N
SAR-Lupe-4 3.6 19:16:05 10° NNE 19:19:41 88° W 19:23:15 10° SSW
Cosmos 1689 Rocket 2.9 19:17:06 10° N 19:19:52 52° WNW 19:22:36 10° SSW
FALCON 9 DEB 3.5 19:18:12 10° SSW 19:20:57 32° SE 19:23:42 10° ENE
Cosmos 389 Rocket 3.6 19:18:47 10° SSE 19:21:40 24° E 19:24:35 10° NE
CZ-2C R/B 3.2 19:17:03 10° N 19:22:12 63° WNW 19:27:24 10° SSW
Cosmos 2098 Rocket 4.4 19:15:18 10° N 19:22:39 82° E 19:29:57 10° S
Cosmos 2322 4.1 19:18:15 10° NNW 19:23:52 67° WSW 19:29:26 10° SSE
CSL-04 Rocket 3.9 19:18:42 10° S 19:23:58 75° WSW 19:29:16 10° NNW
Ariane Rocket 3.7 19:19:36 10° SE 19:24:13 37° ENE 19:28:50 10° N
ERS-2 2.1 19:20:46 10° NNE 19:24:25 89° WNW 19:28:02 10° SSW
Cosmos 614 Rocket 4.1 19:19:56 10° S 19:24:53 51° ESE 19:29:50 10° NNE
Cosmos 2251 Rocket 3.5 19:21:16 10° SSW 19:26:36 75° ESE 19:31:56 10° NNE
ATLAS 3B R/B 2.9 19:24:05 10° NW 19:31:11 84° NE 19:38:33 10° SE
Cosmos 2279 Rocket 4.3 19:26:03 10° SSE 19:31:49 43° E 19:37:37 10° NNE
Cosmos 1980 4.2 19:33:51 10° NNW 19:39:20 46° ENE 19:44:12 13° SE
Cosmos 2360 Rocket 4.5 19:34:59 10° NW 19:39:21 23° W 19:43:40 10° SSW
SL-16 R/B 3.9 19:35:35 10° N 19:39:29 19° NE 19:43:22 10° E
Cosmos 2026 Rocket 3.9 19:34:08 10° N 19:40:15 81° E 19:46:24 10° S
SME Rocket 4.1 19:37:33 10° N 19:41:33 58° WNW 19:46:56 10° SSW
Cosmos 2151 4.3 19:38:13 10° NNE 19:41:41 23° ENE 19:44:10 15° ESE
FALCON 9 DEB 3.1 19:39:47 10° SSW 19:42:43 43° SE 19:45:39 10° ENE
Cosmos 1455 3.0 19:42:09 10° SSW 19:45:48 54° W 19:49:28 10° N
COSMOS 2455 4.0 19:42:16 10° SSE 19:46:38 21° ESE 19:51:01 10° ENE
SL-4 R/B 2.3 19:45:23 10° SW 19:49:31 52° SE 19:54:00 10° ENE
IRS-1A Rocket 4.3 19:44:18 10° SSE 19:49:49 68° ENE 19:55:30 10° N
USA 186 2.8 19:49:34 10° S 19:52:45 45° W 19:55:48 10° NNW
BREEZE M DEB (TANK) 4.1 19:50:22 10° S 19:53:15 29° ESE 19:59:38 10° ENE
Cosmos 2219 Rocket 3.2 19:48:34 10° NW 19:54:00 47° WSW 19:59:23 10° S
BREEZE-M DEB (TANK) 3.6 19:52:38 10° W 19:54:43 22° SSW 19:57:33 11° SSE
OBJECT-B 1.1 19:54:16 10° S 19:57:27 65° W 20:00:41 10° NNW
Cosmos 1076 Rocket 3.5 19:53:47 10° N 19:58:05 63° E 20:01:45 14° SSE
COSMOS 2428 3.5 19:52:44 10° NW 19:58:18 52° WSW 20:03:49 10° S
ATLAS 5 CENTAUR R/B 1.7 19:57:25 10° WNW 19:59:13 39° SW 20:01:00 17° SSE
Cosmos 1634 Rocket 4.3 19:55:38 10° SSW 20:01:52 70° W 20:08:07 10° N
Cosmos 2344 3.9 19:56:35 10° SW 20:04:02 68° NW 20:11:54 10° NE
Cosmos 2292 Rocket 4.1 19:58:24 10° N 20:04:42 68° ENE 20:08:34 15° SSE
ARIANE 5 R/B 4.4 20:04:04 15° E 20:05:25 17° ENE 20:08:13 10° NNE
Cosmos 407 Rocket 3.4 20:00:23 10° S 20:05:26 64° ESE 20:10:34 10° NNE
Cosmos 1356 3.4 20:02:31 10° NNW 20:05:57 80° W 20:08:39 15° S
SL-8 R/B 4.4 20:01:22 10° WNW 20:05:57 44° SW 20:09:04 19° SSE
IRIDIUM 104 4.3 20:04:34 10° S 20:09:44 69° E 20:14:56 10° N
Cosmos 1023 Rocket 4.4 20:05:30 10° S 20:10:30 64° ESE 20:15:33 10° NNE
Meteor 2-3 Rocket 4.1 20:09:06 10° N 20:14:37 46° ENE 20:17:47 24° SE
Cosmos 44 Rocket 4.1 20:12:34 10° S 20:16:57 31° ESE 20:21:28 10° NE
Cosmos 405 Rocket 3.3 20:14:13 10° NNW 20:18:07 56° W 20:21:34 12° S
Cosmos 1140 Rocket 3.3 20:13:36 10° SSW 20:18:41 74° ESE 20:23:49 10° NNE
IRIDIUM 114 4.2 20:13:40 10° S 20:18:52 83° E 20:24:07 10° N
NOSS 0 Rocket 4.3 20:13:12 10° NNW 20:19:22 65° WSW 20:24:39 14° S
Cosmos 1812 Rocket 3.6 20:16:15 10° S 20:20:42 88° W 20:25:11 10° N
Cosmos 1954 Rocket 4.3 20:19:29 18° SSE 20:22:52 41° ESE 20:27:42 10° NE
Timation 2 Rocket 4.0 20:18:59 10° SSW 20:25:33 72° ESE 20:31:52 10° NNE
CZ-2C R/B 3.9 20:21:46 10° NNE 20:26:02 45° E 20:27:43 30° SSE
Cosmos 2237 Rocket 2.2 20:21:34 10° NNW 20:27:13 82° WSW 20:30:48 23° SSE
IRIDIUM 103 4.4 20:22:48 10° S 20:28:01 82° W 20:33:16 10° N
Cosmos 2180 Rocket 4.4 20:22:04 10° S 20:28:14 89° W 20:34:24 10° N
Abrixas rocket 4.2 20:28:06 10° NNW 20:28:20 11° NNW 20:28:20 11° NNW
Meteor 2-21 4.3 20:23:37 10° N 20:29:43 82° E 20:34:06 20° S
Spot 2 Rocket 4.2 20:32:07 30° ESE 20:33:41 37° ENE 20:38:19 10° N
BREEZE M DEB (TANK) 3.5 20:24:29 10° WSW 20:33:48 57° NNW 20:36:34 13° NE
Cosmos 1766 Rocket 4.2 20:31:51 10° N 20:35:52 35° ENE 20:36:22 34° E
FALCON 9 DEB 3.7 20:36:52 10° WSW 20:39:51 50° NNW 20:41:38 21° NE
Cosmos 2227 Rocket 2.2 20:34:40 10° SSW 20:40:20 88° WNW 20:46:03 10° NNE
Cosmos 2082 3.8 20:37:15 22° S 20:40:33 49° ESE 20:45:57 10° NE
Cosmos 1633 2.8 20:38:37 10° NNW 20:42:11 64° W 20:43:20 39° SSW
FALCON 9 DEB 4.2 20:41:40 10° W 20:44:31 38° NNW 20:46:28 17° NNE
Okean 3 Rocket 4.0 20:40:44 10° N 20:45:05 45° ENE 20:45:39 43° E
Lacrosse 5 rocket 4.1 20:44:12 10° NNW 20:46:32 14° NNE 20:48:54 10° NE
Cosmos 1655 Rocket 4.0 20:40:37 10° N 20:46:54 85° W 20:50:54 24° S
Cosmos 2297 Rocket 2.7 20:41:28 10° SW 20:47:03 62° WNW 20:52:41 10° NNE
Cosmos 1869 3.5 20:47:58 51° E 20:47:58 51° E 20:51:40 10° NNE
Resurs 01 Rocket 1.9 20:46:10 29° S 20:48:20 65° WSW 20:52:47 10° NNW
Meteor 1-4 Rocket 3.4 20:50:31 35° NE 20:50:31 35° NE 20:52:53 10° NNE
Genesis I 3.3 20:47:56 10° NW 20:51:57 73° WSW 20:52:33 60° S
Cosmos 2219 3.8 20:50:49 10° SW 20:56:19 58° WNW 21:01:53 10° NNE
Cosmos 2084 Rocket 4.4 20:55:55 10° WSW 20:59:44 44° NW 21:03:38 10° NNE
Cosmos 1763 Rocket 3.9 20:58:55 10° N 21:03:45 42° ENE 21:04:17 41° E
Terra 2.9 21:03:52 30° ENE 21:03:54 30° ENE 21:08:02 10° N
Meteor 2-8 Rocket 4.3 21:02:56 35° S 21:05:44 76° E 21:11:51 10° NNE
BREEZE-M DEB (TANK) 3.7 21:07:34 10° WNW 21:08:46 29° NW 21:08:46 29° NW
SPOT 5 3.0 21:14:07 51° ENE 21:14:07 51° ENE 21:18:47 10° N
Cosmos-2242 4.2 21:12:34 18° SW 21:15:21 40° WNW 21:19:26 10° N
SPOT 1/Viking Rocket 3.6 21:14:17 48° S 21:15:44 73° WSW 21:20:59 10° NNW
Meteor 2-2 Rocket 4.4 21:15:41 51° ESE 21:15:56 51° E 21:21:26 10° NNE
NOSS 3-1 (C) 4.4 21:09:45 10° NNW 21:17:03 54° NE 21:20:23 36° ESE
Cosmos 1842 Rocket 4.5 21:20:26 37° NE 21:20:26 37° NE 21:23:32 10° NNE
Cosmos 676 Rocket 4.4 21:17:21 15° SW 21:21:38 61° WNW 21:26:46 10° NNE
USA 215 3.4 21:21:36 42° ESE 21:23:53 68° NE 21:30:23 10° NW
SL-16 R/B 2.1 21:18:37 10° NNW 21:24:19 81° WSW 21:25:19 61° S
SL-4 R/B 3.4 21:25:04 10° W 21:29:20 43° NNW 21:33:32 12° NE
COSMOS 2455 3.2 21:26:02 10° SW 21:32:00 65° WNW 21:38:01 10° NNE
ERS-1 Rocket 2.8 21:33:53 84° E 21:33:57 85° ENE 21:39:00 10° NNW
Cosmos 1408 Rocket 3.9 21:31:18 10° N 21:34:52 58° N 21:34:52 58° N
Cosmos 2221 3.4 21:41:54 44° NNE 21:41:54 44° NNE 21:44:52 10° N
ARIANE 5 R/B 3.2 21:41:37 50° W 21:41:37 50° W 21:45:45 10° NNW
Cosmos 1862 4.5 21:38:55 10° N 21:41:30 39° N 21:41:30 39° N
Meteor 2-15 Rocket 4.3 21:43:55 70° S 21:44:41 87° E 21:50:47 10° N
Cosmos 1943 3.9 21:44:48 10° NNW 21:50:06 42° ENE 21:50:06 42° ENE
Cosmos 1745 Rocket 4.2 21:47:21 10° N 21:53:25 53° ENE 21:53:25 53° ENE
Cosmos 1741 Rocket 4.2 22:05:12 68° NW 22:05:12 68° NW 22:10:15 10° NNE
S3M 4.1 22:05:25 64° ENE 22:05:25 64° ENE 22:11:23 10° NNE
BREEZE-M DEB (TANK) 4.0 22:00:37 10° WNW 22:06:19 47° NW 22:06:19 47° NW
Cosmos 1850 Rocket 4.3 22:08:07 61° WNW 22:08:07 61° WNW 22:13:11 10° NNE
Cosmos 2263 Rocket 2.5 22:16:15 59° NNE 22:16:15 59° NNE 22:20:44 10° NNE
Aureole 1 Rocket 3.9 22:17:34 61° NW 22:17:34 61° NW 22:21:44 10° NNE
Cosmos 1386 Rocket 4.4 22:16:52 10° N 22:22:22 75° N 22:22:22 75° N
USA 229 DEB 3.8 22:19:04 10° NW 22:26:28 85° NE 22:27:01 78° ESE
USA 229 3.8 22:19:09 10° NW 22:26:34 84° NE 22:27:08 78° ESE
Lacrosse 5 rocket 3.3 22:22:46 10° NNW 22:25:35 29° N 22:25:35 29° N
Cosmos 1553 Rocket 4.4 22:33:03 52° W 22:33:25 53° WNW 22:39:23 10° N
Cosmos 841 Rocket 4.4 22:32:35 10° NNW 22:36:20 44° NW 22:36:20 44° NW
Cosmos 1603 4.2 22:33:18 10° NNW 22:37:52 58° NW 22:37:52 58° NW
Terra 3.5 22:42:44 27° WNW 22:42:44 27° WNW 22:45:47 10° NW
NOSS 3-1 (A) 4.0 22:36:49 10° NW 22:44:31 85° SW 22:45:03 79° S
USA 215 4.3 23:08:55 32° W 23:08:55 32° W 23:13:09 10° WNW
SL-4 R/B 4.3 23:05:51 10° WNW 23:09:09 27° NNW 23:09:09 27° NNW
Cosmos 2315 Rocket 4.4 23:16:01 62° NNW 23:16:01 62° NNW 23:21:28 10° N
ATLAS 5 CENTAUR R/B 4.3 23:20:25 10° NNW 23:24:25 20° NE 23:27:06 15° ENE
SeaSat 1 3.9 23:27:46 10° NNE 23:31:05 34° NNW 23:31:05 34° NNW
Cosmos 2074 Rocket 4.5 23:36:14 10° N 23:41:12 58° N 23:41:12 58° N
USA 281 4.0 23:43:08 42° ENE 23:43:34 43° NE 23:49:42 10° NNW
